Starlink 32809

operational
NORAD ID: 62849 Int'l Des: 2025-019 Owner: SPXS Country: US Constellation: starlink
LEOCIRCULAR

About Starlink 32809

Description loading...

Live Position

Loading 3D Globe...

Upcoming Passes

Altitude History

Altitude vs Time

uPlot chart will show altitude changes over time

Two-Line Element Set

1 62849U 25019W 26048.47995890 .00019954 00000-0 73239-3 0 9992
2 62849 42.9986 202.8052 0001705 240.9615 119.1066 15.27591523 59163
Epoch: Feb 17, 2026 • Age: 31 hours

Current Status

Altitude 489.5 km
Velocity 7.62 km/s
Sub-Earth Point -27.65°S, 91.98°E
Launch Date Jan 27, 2025
Age 1 years
Type internet

Technical Details

Classification Payload
Mass 730.00 kg
Dry Mass 700.00 kg
Total Mass 730.00 kg
Length 0.30 m
Diameter 4.10 m
Span 29.00 m
Shape Box + pan
Manufacturer SPXS
Bus Type Starlink V2M
Phase Status In Orbit
Owner/State SPXS/US

Large Constellations

Loading constellations...